,,,PA_Meas_PMT16A,,PR_Meas_QMR101_102,,RH_Meas_QMH101,,SR_Meas_QMS101,,TA_Meas_QMH101,,GenWind,,GenWind,
date,time,status,PA,status,PR,status,RH,status,SR,status,TA,status,DirAvg,status,SpdAvg,
2010-09-10, 00:00:04,VALID,1011.66,VALID,0,VALID,103.512,VALID,0,VALID,22.8173,VALID,96,VALID,1.04922,
2010-09-10, 00:01:04,VALID,1011.71,VALID,0,VALID,103.489,VALID,0,VALID,22.7961,VALID,97,VALID,1.26914,
2010-09-10, 00:02:04,VALID,1011.7,VALID,0,VALID,103.504,VALID,0,VALID,22.8385,VALID,97,VALID,1.15117,
2010-09-10, 00:03:04,VALID,1011.72,VALID,0,VALID,103.497,VALID,0,VALID,22.8173,VALID,98,VALID,1.56328,
2010-09-10, 00:04:04,VALID,1011.74,VALID,0,VALID,103.512,VALID,0,VALID,22.8173,VALID,81,VALID,1.25586,
2010-09-10, 00:05:04,VALID,1011.73,VALID,0,VALID,103.52,VALID,0,VALID,22.8173,VALID,109,VALID,1.36914,
2010-09-10, 00:06:04,VALID,1011.77,VALID,0,VALID,103.504,VALID,0.105969,VALID,22.8173,VALID,110,VALID,0.781641,
2010-09-10, 00:07:04,VALID,1011.78,VALID,0,VALID,103.504,VALID,0,VALID,22.8173,VALID,85,VALID,1.52813,
2010-09-10, 00:08:04,VALID,1011.8,VALID,0,VALID,103.52,VALID,0,VALID,22.8173,VALID,83,VALID,1.22617,
2010-09-10, 00:09:04,VALID,1011.83,VALID,0,VALID,103.512,VALID,0,VALID,22.8173,VALID,98,VALID,0.983594,
2010-09-10, 00:10:04,VALID,1011.82,VALID,0,VALID,103.535,VALID,0,VALID,22.8173,VALID,119,VALID,1.53477,
2010-09-10, 00:11:04,VALID,1011.85,VALID,0,VALID,103.512,VALID,0,VALID,22.8173,VALID,74,VALID,0.991797,
2010-09-10, 00:12:04,VALID,1011.87,VALID,0,VALID,103.535,VALID,0,VALID,22.8173,VALID,92,VALID,1.14414,
2010-09-10, 00:13:04,VALID,1011.85,VALID,0,VALID,103.535,VALID,0,VALID,22.7978,VALID,102,VALID,1.08984,
2010-09-10, 00:14:04,VALID,1011.87,VALID,0,VALID,103.535,VALID,0,VALID,22.7978,VALID,104,VALID,1.04453,
2010-09-10, 00:15:04,VALID,1011.89,VALID,0,VALID,103.542,VALID,0,VALID,22.7978,VALID,74,VALID,0.757422,
2010-09-10, 00:16:04,VALID,1011.91,VALID,0,VALID,103.52,VALID,0,VALID,22.7978,VALID,99,VALID,1.00625,
2010-09-10, 00:17:04,VALID,1011.92,VALID,0,VALID,103.542,VALID,0,VALID,22.7783,VALID,88,VALID,0.735937,
2010-09-10, 00:18:04,VALID,1011.95,VALID,0,VALID,103.52,VALID,0,VALID,22.7783,VALID,101,VALID,0.969922,
2010-09-10, 00:19:04,VALID,1011.96,VALID,0,VALID,103.535,VALID,0,VALID,22.7783,VALID,100,VALID,0.898047,
2010-09-10, 00:20:04,VALID,1011.99,VALID,0.5,VALID,103.535,VALID,0,VALID,22.7783,VALID,98,VALID,1.0043,
2010-09-10, 00:21:04,VALID,1012.02,VALID,0,VALID,103.558,VALID,0,VALID,22.7783,VALID,91,VALID,1.17305,
2010-09-10, 00:22:04,VALID,1012.01,VALID,0,VALID,103.55,VALID,0.105969,VALID,22.7783,VALID,76,VALID,0.835547,
2010-09-10, 00:23:04,VALID,1012,VALID,0,VALID,103.558,VALID,0,VALID,22.7783,VALID,98,VALID,1.13555,
2010-09-10, 00:24:04,VALID,1012.02,VALID,0,VALID,103.535,VALID,0,VALID,22.7588,VALID,111,VALID,0.298828,
2010-09-10, 00:25:04,VALID,1012.02,VALID,0,VALID,103.558,VALID,0.105969,VALID,22.7588,VALID,84,VALID,0.885156,
2010-09-10, 00:26:04,VALID,1012.01,VALID,0,VALID,103.542,VALID,0,VALID,22.7588,VALID,116,VALID,0.803906,
2010-09-10, 00:27:04,VALID,1012.03,VALID,0,VALID,103.535,VALID,0,VALID,22.7394,VALID,92,VALID,1.20195,
2010-09-10, 00:28:04,VALID,1012.01,VALID,0,VALID,103.573,VALID,0,VALID,22.7394,VALID,114,VALID,1.02109,
2010-09-10, 00:29:04,VALID,1011.99,VALID,0,VALID,103.558,VALID,0,VALID,22.7182,VALID,84,VALID,1.11094,
2010-09-10, 00:30:04,VALID,1012.01,VALID,0,VALID,103.565,VALID,0,VALID,22.7588,VALID,110,VALID,0.774609,
2010-09-10, 00:31:04,VALID,1012.02,VALID,0,VALID,103.573,VALID,0,VALID,22.7394,VALID,91,VALID,0.835547,
2010-09-10, 00:32:04,VALID,1012.01,VALID,0,VALID,103.581,VALID,0,VALID,22.7394,VALID,85,VALID,1.68281,
2010-09-10, 00:33:04,VALID,1012.03,VALID,0,VALID,103.573,VALID,0,VALID,22.7394,VALID,98,VALID,1.14766,
2010-09-10, 00:34:04,VALID,1012.05,VALID,0,VALID,103.581,VALID,0.105969,VALID,22.7394,VALID,98,VALID,1.40586,
2010-09-10, 00:35:04,VALID,1012.06,VALID,0,VALID,103.573,VALID,0,VALID,22.7199,VALID,91,VALID,2.05391,
2010-09-10, 00:36:04,VALID,1012.07,VALID,0,VALID,103.581,VALID,0.105969,VALID,22.7199,VALID,104,VALID,1.56523,
2010-09-10, 00:37:04,VALID,1012.07,VALID,0,VALID,103.535,VALID,0.105969,VALID,22.7394,VALID,93,VALID,1.16602,
2010-09-10, 00:38:04,VALID,1012.05,VALID,0.5,VALID,103.558,VALID,0,VALID,22.7199,VALID,96,VALID,1.19102,
2010-09-10, 00:39:04,VALID,1012.06,VALID,0,VALID,103.55,VALID,0,VALID,22.7199,VALID,83,VALID,1.46016,
2010-09-10, 00:40:04,VALID,1012.07,VALID,0,VALID,103.558,VALID,0,VALID,22.7004,VALID,81,VALID,1.20039,
2010-09-10, 00:41:04,VALID,1012.01,VALID,0,VALID,103.573,VALID,0,VALID,22.7004,VALID,87,VALID,1.38984,
2010-09-10, 00:42:04,VALID,1012,VALID,0,VALID,103.542,VALID,0,VALID,22.6792,VALID,84,VALID,1.6957,
2010-09-10, 00:43:04,VALID,1011.99,VALID,0,VALID,103.558,VALID,0,VALID,22.7004,VALID,88,VALID,1.50742,
2010-09-10, 00:44:04,VALID,1011.96,VALID,0,VALID,103.581,VALID,0,VALID,22.6809,VALID,91,VALID,2.00312,
2010-09-10, 00:45:04,VALID,1011.95,VALID,0,VALID,103.573,VALID,0,VALID,22.7004,VALID,87,VALID,1.59219,
2010-09-10, 00:46:04,VALID,1011.97,VALID,0,VALID,103.558,VALID,0,VALID,22.7004,VALID,83,VALID,0.996484,
2010-09-10, 00:47:04,VALID,1011.97,VALID,0,VALID,103.55,VALID,0,VALID,22.6597,VALID,117,VALID,1.39531,
2010-09-10, 00:48:04,VALID,1011.94,VALID,0,VALID,103.603,VALID,0,VALID,22.6597,VALID,102,VALID,1.5293,
2010-09-10, 00:49:04,VALID,1011.94,VALID,0,VALID,103.558,VALID,0,VALID,22.6809,VALID,75,VALID,0.826953,
2010-09-10, 00:50:04,VALID,1011.93,VALID,0,VALID,103.55,VALID,0,VALID,22.6792,VALID,107,VALID,0.805859,
2010-09-10, 00:51:04,VALID,1011.94,VALID,0,VALID,103.558,VALID,0,VALID,22.6809,VALID,73,VALID,1.17148,
2010-09-10, 00:52:04,VALID,1011.94,VALID,0,VALID,103.558,VALID,0,VALID,22.6614,VALID,107,VALID,1.53203,
2010-09-10, 00:53:04,VALID,1011.96,VALID,0,VALID,103.573,VALID,0,VALID,22.6614,VALID,84,VALID,1.69219,
2010-09-10, 00:54:04,VALID,1011.97,VALID,0,VALID,103.581,VALID,0,VALID,22.6614,VALID,69,VALID,0.688281,
2010-09-10, 00:55:04,VALID,1012,VALID,0,VALID,103.565,VALID,0,VALID,22.6614,VALID,90,VALID,1.00273,
2010-09-10, 00:56:04,VALID,1011.97,VALID,0,VALID,103.581,VALID,0,VALID,22.6597,VALID,84,VALID,1.72187,
2010-09-10, 00:57:04,VALID,1011.99,VALID,0,VALID,103.581,VALID,0,VALID,22.6614,VALID,90,VALID,1.11289,
2010-09-10, 00:58:04,VALID,1012.02,VALID,0,VALID,103.588,VALID,0,VALID,22.6614,VALID,88,VALID,1.50781,
2010-09-10, 00:59:04,VALID,1011.99,VALID,0.5,VALID,103.596,VALID,0,VALID,22.642,VALID,86,VALID,1.10859,
2010-09-10, 01:00:04,VALID,1011.99,VALID,0,VALID,103.581,VALID,0,VALID,22.642,VALID,73,VALID,1.08477,
2010-09-10, 01:01:04,VALID,1012.02,VALID,0,VALID,103.596,VALID,0,VALID,22.642,VALID,85,VALID,1.95156,
2010-09-10, 01:02:04,VALID,1012,VALID,0,VALID,103.573,VALID,0,VALID,22.642,VALID,82,VALID,1.50352,
2010-09-10, 01:03:04,VALID,1012,VALID,0,VALID,103.603,VALID,0,VALID,22.642,VALID,95,VALID,0.921484,
2010-09-10, 01:04:04,VALID,1012.02,VALID,0,VALID,103.588,VALID,0,VALID,22.642,VALID,78,VALID,1.66289,
2010-09-10, 01:05:04,VALID,1012,VALID,0,VALID,103.611,VALID,0,VALID,22.642,VALID,92,VALID,1.02422,
2010-09-10, 01:06:04,VALID,1012.05,VALID,0,VALID,103.588,VALID,0,VALID,22.6208,VALID,92,VALID,0.608203,
2010-09-10, 01:07:04,VALID,1012.07,VALID,0,VALID,103.603,VALID,0,VALID,22.6225,VALID,96,VALID,1.15156,
2010-09-10, 01:08:04,VALID,1012.04,VALID,0,VALID,103.588,VALID,0,VALID,22.642,VALID,88,VALID,1.77617,
2010-09-10, 01:09:04,VALID,1012.06,VALID,0,VALID,103.588,VALID,0,VALID,22.642,VALID,114,VALID,1.18164,
2010-09-10, 01:10:04,VALID,1012.06,VALID,0,VALID,103.573,VALID,0,VALID,22.642,VALID,86,VALID,1.29961,
2010-09-10, 01:11:04,VALID,1012.05,VALID,0,VALID,103.573,VALID,0,VALID,22.642,VALID,82,VALID,1.01836,
2010-09-10, 01:12:04,VALID,1012.08,VALID,0,VALID,103.596,VALID,0,VALID,22.642,VALID,78,VALID,1.65977,
2010-09-10, 01:13:04,VALID,1012.08,VALID,0,VALID,103.573,VALID,0,VALID,22.642,VALID,73,VALID,1.01758,
2010-09-10, 01:14:04,VALID,1012.08,VALID,0,VALID,103.573,VALID,0,VALID,22.642,VALID,56,VALID,1.38086,
2010-09-10, 01:15:04,VALID,1012.1,VALID,0,VALID,103.558,VALID,0,VALID,22.642,VALID,71,VALID,1.60938,
2010-09-10, 01:16:04,VALID,1012.08,VALID,0,VALID,103.558,VALID,0,VALID,22.6225,VALID,89,VALID,1.31797,
2010-09-10, 01:17:04,VALID,1012.08,VALID,0,VALID,103.558,VALID,0,VALID,22.642,VALID,109,VALID,1.50352,
2010-09-10, 01:18:04,VALID,1012.1,VALID,0,VALID,103.55,VALID,0,VALID,22.642,VALID,87,VALID,1.2043,
2010-09-10, 01:19:04,VALID,1012.14,VALID,0,VALID,103.542,VALID,0,VALID,22.642,VALID,89,VALID,0.934375,
2010-09-10, 01:20:04,VALID,1012.13,VALID,0,VALID,103.558,VALID,0,VALID,22.6225,VALID,87,VALID,1.47617,
2010-09-10, 01:21:04,VALID,1012.14,VALID,0,VALID,103.55,VALID,0,VALID,22.6225,VALID,87,VALID,1.38633,
2010-09-10, 01:22:04,VALID,1012.13,VALID,0,VALID,103.542,VALID,0,VALID,22.642,VALID,102,VALID,0.677734,
2010-09-10, 01:23:04,VALID,1012.13,VALID,0,VALID,103.527,VALID,0,VALID,22.6225,VALID,88,VALID,1.56914,
2010-09-10, 01:24:04,VALID,1012.17,VALID,0,VALID,103.55,VALID,0,VALID,22.6225,VALID,88,VALID,1.55078,
2010-09-10, 01:25:04,VALID,1012.18,VALID,0,VALID,103.527,VALID,0,VALID,22.6225,VALID,103,VALID,0.916406,
2010-09-10, 01:26:04,VALID,1012.16,VALID,0,VALID,103.535,VALID,0,VALID,22.6225,VALID,98,VALID,0.888281,
2010-09-10, 01:27:04,VALID,1012.19,VALID,0,VALID,103.512,VALID,0,VALID,22.6437,VALID,108,VALID,1.83359,
2010-09-10, 01:28:04,VALID,1012.18,VALID,0,VALID,103.52,VALID,0,VALID,22.642,VALID,105,VALID,1.51719,
2010-09-10, 01:29:04,VALID,1012.2,VALID,0,VALID,103.52,VALID,0,VALID,22.642,VALID,86,VALID,1.00547,
2010-09-10, 01:30:04,VALID,1012.21,VALID,0,VALID,103.55,VALID,0,VALID,22.642,VALID,76,VALID,0.882031,
2010-09-10, 01:31:04,VALID,1012.22,VALID,0,VALID,103.542,VALID,0,VALID,22.642,VALID,97,VALID,1.1293,
2010-09-10, 01:32:04,VALID,1012.2,VALID,0,VALID,103.52,VALID,0,VALID,22.6225,VALID,58,VALID,1.08828,
2010-09-10, 01:33:04,VALID,1012.21,VALID,0,VALID,103.512,VALID,0,VALID,22.6225,VALID,104,VALID,0.908594,
2010-09-10, 01:34:04,VALID,1012.22,VALID,0,VALID,103.527,VALID,0,VALID,22.6225,VALID,89,VALID,0.214844,
2010-09-10, 01:35:04,VALID,1012.22,VALID,0,VALID,103.52,VALID,0,VALID,22.603,VALID,88,VALID,1.03516,
2010-09-10, 01:36:04,VALID,1012.24,VALID,0,VALID,103.52,VALID,0,VALID,22.603,VALID,86,VALID,1.84375,
2010-09-10, 01:37:04,VALID,1012.23,VALID,0,VALID,103.52,VALID,0,VALID,22.603,VALID,74,VALID,1.14766,
2010-09-10, 01:38:04,VALID,1012.25,VALID,0,VALID,103.527,VALID,0,VALID,22.603,VALID,99,VALID,0.81875,
2010-09-10, 01:39:04,VALID,1012.23,VALID,0,VALID,103.535,VALID,0,VALID,22.603,VALID,103,VALID,0.638672,
2010-09-10, 01:40:04,VALID,1012.23,VALID,0,VALID,103.55,VALID,0,VALID,22.603,VALID,83,VALID,1.09063,
2010-09-10, 01:41:04,VALID,1012.22,VALID,0,VALID,103.527,VALID,0,VALID,22.5835,VALID,89,VALID,1.47695,
2010-09-10, 01:42:04,VALID,1012.23,VALID,0.5,VALID,103.558,VALID,0,VALID,22.5835,VALID,81,VALID,1.45703,
2010-09-10, 01:43:04,VALID,1012.21,VALID,0,VALID,103.558,VALID,0,VALID,22.5623,VALID,104,VALID,0.678516,
2010-09-10, 01:44:04,VALID,1012.2,VALID,0,VALID,103.55,VALID,0,VALID,22.5835,VALID,104,VALID,0.730078,
2010-09-10, 01:45:04,VALID,1012.22,VALID,0,VALID,103.565,VALID,0,VALID,22.5835,VALID,83,VALID,1.51367,
2010-09-10, 01:46:04,VALID,1012.2,VALID,0,VALID,103.565,VALID,0,VALID,22.6047,VALID,75,VALID,1.27852,
2010-09-10, 01:47:04,VALID,1012.21,VALID,0,VALID,103.573,VALID,0,VALID,22.5835,VALID,86,VALID,1.16523,
2010-09-10, 01:48:04,VALID,1012.2,VALID,0,VALID,103.573,VALID,0,VALID,22.5835,VALID,83,VALID,1.73945,
2010-09-10, 01:49:04,VALID,1012.2,VALID,0,VALID,103.588,VALID,0,VALID,22.5835,VALID,88,VALID,2.51484,
2010-09-10, 01:50:04,VALID,1012.2,VALID,0,VALID,103.55,VALID,0,VALID,22.5835,VALID,63,VALID,0.629687,
2010-09-10, 01:51:04,VALID,1012.2,VALID,0,VALID,103.558,VALID,0,VALID,22.6047,VALID,91,VALID,0.823438,
2010-09-10, 01:52:04,VALID,1012.19,VALID,0,VALID,103.558,VALID,0,VALID,22.564,VALID,81,VALID,0.970312,
2010-09-10, 01:53:04,VALID,1012.2,VALID,0,VALID,103.565,VALID,0,VALID,22.564,VALID,87,VALID,1.00859,
2010-09-10, 01:54:04,VALID,1012.19,VALID,0,VALID,103.573,VALID,0,VALID,22.564,VALID,58,VALID,1.15039,
2010-09-10, 01:55:04,VALID,1012.19,VALID,0,VALID,103.565,VALID,0,VALID,22.564,VALID,81,VALID,1.40039,
2010-09-10, 01:56:04,VALID,1012.2,VALID,0,VALID,103.573,VALID,0,VALID,22.564,VALID,78,VALID,1.0293,
2010-09-10, 01:57:04,VALID,1012.18,VALID,0,VALID,103.542,VALID,0,VALID,22.5446,VALID,51,VALID,1.90898,
2010-09-10, 01:58:04,VALID,1012.19,VALID,0,VALID,103.542,VALID,0,VALID,22.5446,VALID,109,VALID,1.24414,
2010-09-10, 01:59:04,VALID,1012.16,VALID,0,VALID,103.527,VALID,0,VALID,22.564,VALID,32,VALID,1.475,
2010-09-10, 02:00:04,VALID,1012.15,VALID,0.5,VALID,103.535,VALID,0,VALID,22.5463,VALID,96,VALID,1.23477,
2010-09-10, 02:01:04,VALID,1012.16,VALID,0,VALID,103.535,VALID,0,VALID,22.5251,VALID,65,VALID,1.42578,
2010-09-10, 02:02:04,VALID,1012.15,VALID,0,VALID,103.527,VALID,0,VALID,22.5251,VALID,94,VALID,1.08203,
2010-09-10, 02:03:04,VALID,1012.16,VALID,0,VALID,103.535,VALID,0,VALID,22.5251,VALID,86,VALID,1.45391,
2010-09-10, 02:04:04,VALID,1012.11,VALID,0,VALID,103.558,VALID,0,VALID,22.5251,VALID,38,VALID,0.917188,
2010-09-10, 02:05:04,VALID,1012.1,VALID,0,VALID,103.542,VALID,0,VALID,22.5056,VALID,83,VALID,1.4625,
2010-09-10, 02:06:04,VALID,1012.08,VALID,0,VALID,103.535,VALID,0,VALID,22.5056,VALID,112,VALID,0.827734,
2010-09-10, 02:07:04,VALID,1012.08,VALID,0,VALID,103.542,VALID,0,VALID,22.5039,VALID,61,VALID,1.34297,
2010-09-10, 02:08:04,VALID,1012.07,VALID,0,VALID,103.535,VALID,0,VALID,22.5056,VALID,77,VALID,0.785547,
2010-09-10, 02:09:04,VALID,1012.05,VALID,0,VALID,103.535,VALID,0,VALID,22.5056,VALID,92,VALID,1.15508,
2010-09-10, 02:10:04,VALID,1012.06,VALID,0,VALID,103.542,VALID,0,VALID,22.5056,VALID,56,VALID,0.338281,
2010-09-10, 02:11:04,VALID,1012.08,VALID,0,VALID,103.558,VALID,0,VALID,22.5268,VALID,85,VALID,0.392969,
2010-09-10, 02:12:04,VALID,1012.04,VALID,0,VALID,103.581,VALID,0,VALID,22.4861,VALID,80,VALID,0.987891,
2010-09-10, 02:13:04,VALID,1012.03,VALID,0,VALID,103.573,VALID,0,VALID,22.4861,VALID,79,VALID,0.475781,
2010-09-10, 02:14:04,VALID,1012.02,VALID,0,VALID,103.565,VALID,0,VALID,22.4861,VALID,70,VALID,0.786328,
2010-09-10, 02:15:04,VALID,1012.01,VALID,0,VALID,103.596,VALID,0,VALID,22.4667,VALID,71,VALID,0.66875,
2010-09-10, 02:16:04,VALID,1012,VALID,0,VALID,103.588,VALID,0,VALID,22.4667,VALID,34,VALID,0.606641,
2010-09-10, 02:17:04,VALID,1012.02,VALID,0,VALID,103.596,VALID,0,VALID,22.4667,VALID,85,VALID,0.851953,
2010-09-10, 02:18:04,VALID,1011.98,VALID,0,VALID,103.581,VALID,0,VALID,22.4667,VALID,90,VALID,1.12461,
2010-09-10, 02:19:04,VALID,1011.98,VALID,0,VALID,103.588,VALID,0,VALID,22.4667,VALID,83,VALID,0.996875,
2010-09-10, 02:20:04,VALID,1011.98,VALID,0,VALID,103.603,VALID,0,VALID,22.4667,VALID,69,VALID,0.763672,
2010-09-10, 02:21:04,VALID,1011.95,VALID,0.5,VALID,103.588,VALID,0,VALID,22.4667,VALID,87,VALID,0.492578,
2010-09-10, 02:22:04,VALID,1011.91,VALID,0,VALID,103.603,VALID,0,VALID,22.4684,VALID,72,VALID,0.553125,
2010-09-10, 02:23:04,VALID,1011.92,VALID,0,VALID,103.588,VALID,0,VALID,22.4667,VALID,94,VALID,1.06367,
2010-09-10, 02:24:04,VALID,1011.89,VALID,0,VALID,103.596,VALID,0,VALID,22.4472,VALID,59,VALID,0.829687,
2010-09-10, 02:25:04,VALID,1011.91,VALID,0,VALID,103.596,VALID,0,VALID,22.4277,VALID,53,VALID,0.401172,
2010-09-10, 02:26:04,VALID,1011.85,VALID,0,VALID,103.603,VALID,0,VALID,22.4472,VALID,48,VALID,0.774609,
2010-09-10, 02:27:04,VALID,1011.88,VALID,0,VALID,103.603,VALID,0,VALID,22.4472,VALID,56,VALID,0.520312,
2010-09-10, 02:28:04,VALID,1011.86,VALID,0,VALID,103.603,VALID,0,VALID,22.4472,VALID,88,VALID,0.360938,
2010-09-10, 02:29:04,VALID,1011.83,VALID,0,VALID,103.596,VALID,0,VALID,22.4472,VALID,89,VALID,0.273047,
2010-09-10, 02:30:04,VALID,1011.81,VALID,0,VALID,103.596,VALID,0,VALID,22.4472,VALID,93,VALID,0.721875,
2010-09-10, 02:31:04,VALID,1011.82,VALID,0,VALID,103.603,VALID,0,VALID,22.4277,VALID,58,VALID,1.18984,
2010-09-10, 02:32:04,VALID,1011.78,VALID,0,VALID,103.619,VALID,0,VALID,22.4082,VALID,67,VALID,0.484766,
2010-09-10, 02:33:04,VALID,1011.76,VALID,0,VALID,103.603,VALID,0,VALID,22.4277,VALID,108,VALID,1.06523,
2010-09-10, 02:34:04,VALID,1011.75,VALID,0,VALID,103.603,VALID,0,VALID,22.4082,VALID,85,VALID,0.610547,
2010-09-10, 02:35:04,VALID,1011.73,VALID,0,VALID,103.603,VALID,0,VALID,22.4082,VALID,100,VALID,0.797656,
2010-09-10, 02:36:04,VALID,1011.71,VALID,0,VALID,103.588,VALID,0,VALID,22.4277,VALID,63,VALID,1.06992,
2010-09-10, 02:37:04,VALID,1011.7,VALID,0,VALID,103.611,VALID,0,VALID,22.4277,VALID,98,VALID,1.0875,
2010-09-10, 02:38:04,VALID,1011.68,VALID,0,VALID,103.611,VALID,0,VALID,22.4277,VALID,70,VALID,0.566797,
2010-09-10, 02:39:04,VALID,1011.68,VALID,0,VALID,103.619,VALID,0,VALID,22.4082,VALID,82,VALID,1.68594,
2010-09-10, 02:40:04,VALID,1011.65,VALID,0,VALID,103.619,VALID,0,VALID,22.4489,VALID,65,VALID,0.952344,
2010-09-10, 02:41:04,VALID,1011.61,VALID,0,VALID,103.611,VALID,0,VALID,22.4082,VALID,109,VALID,1.14688,
2010-09-10, 02:42:04,VALID,1011.62,VALID,0,VALID,103.619,VALID,0,VALID,22.4277,VALID,88,VALID,1.53711,
2010-09-10, 02:43:04,VALID,1011.58,VALID,0,VALID,103.603,VALID,0,VALID,22.4082,VALID,82,VALID,0.900391,
2010-09-10, 02:44:04,VALID,1011.57,VALID,0,VALID,103.596,VALID,0,VALID,22.387,VALID,75,VALID,1.07617,
2010-09-10, 02:45:04,VALID,1011.55,VALID,0,VALID,103.596,VALID,0,VALID,22.4099,VALID,88,VALID,1.23281,
2010-09-10, 02:46:04,VALID,1011.52,VALID,0,VALID,103.588,VALID,0,VALID,22.4082,VALID,103,VALID,1.79453,
2010-09-10, 02:47:04,VALID,1011.49,VALID,0,VALID,103.588,VALID,0,VALID,22.4082,VALID,95,VALID,1.54141,
2010-09-10, 02:48:04,VALID,1011.46,VALID,0,VALID,103.581,VALID,0,VALID,22.4082,VALID,102,VALID,1.76875,
2010-09-10, 02:49:04,VALID,1011.44,VALID,0,VALID,103.558,VALID,0,VALID,22.4099,VALID,89,VALID,0.820703,
2010-09-10, 02:50:04,VALID,1011.42,VALID,0,VALID,103.55,VALID,0,VALID,22.3887,VALID,93,VALID,1.625,
2010-09-10, 02:51:04,VALID,1011.38,VALID,0,VALID,103.527,VALID,0,VALID,22.3887,VALID,83,VALID,1.6793,
2010-09-10, 02:52:04,VALID,1011.37,VALID,0,VALID,103.512,VALID,0,VALID,22.3887,VALID,94,VALID,1.46328,
2010-09-10, 02:53:04,VALID,1011.35,VALID,0,VALID,103.481,VALID,0,VALID,22.3887,VALID,76,VALID,1.4293,
2010-09-10, 02:54:04,VALID,1011.31,VALID,0,VALID,103.497,VALID,0,VALID,22.3887,VALID,98,VALID,1.73281,
2010-09-10, 02:55:04,VALID,1011.31,VALID,0,VALID,103.459,VALID,0,VALID,22.4082,VALID,82,VALID,1.19102,
2010-09-10, 02:56:04,VALID,1011.29,VALID,0,VALID,103.466,VALID,0,VALID,22.4099,VALID,95,VALID,1.91914,
2010-09-10, 02:57:04,VALID,1011.27,VALID,0,VALID,103.466,VALID,0,VALID,22.3693,VALID,91,VALID,1.28477,
2010-09-10, 02:58:04,VALID,1011.24,VALID,0.5,VALID,103.459,VALID,0,VALID,22.3904,VALID,86,VALID,1.06719,
2010-09-10, 02:59:04,VALID,1011.22,VALID,0,VALID,103.466,VALID,0,VALID,22.3693,VALID,110,VALID,1.78984,
2010-09-10, 03:00:04,VALID,1011.22,VALID,0,VALID,103.466,VALID,0,VALID,22.3498,VALID,110,VALID,1.60352,
2010-09-10, 03:01:04,VALID,1011.2,VALID,0,VALID,103.481,VALID,0,VALID,22.3498,VALID,77,VALID,1.95195,
2010-09-10, 03:02:04,VALID,1011.17,VALID,0,VALID,103.443,VALID,0,VALID,22.3498,VALID,86,VALID,1.2082,
2010-09-10, 03:03:04,VALID,1011.14,VALID,0,VALID,103.451,VALID,0,VALID,22.3498,VALID,91,VALID,1.9043,
2010-09-10, 03:04:04,VALID,1011.11,VALID,0,VALID,103.436,VALID,0,VALID,22.3303,VALID,83,VALID,1.97969,
2010-09-10, 03:05:04,VALID,1011.09,VALID,0,VALID,103.39,VALID,0,VALID,22.3498,VALID,107,VALID,2.11445,
2010-09-10, 03:06:04,VALID,1011.07,VALID,0,VALID,103.359,VALID,0,VALID,22.371,VALID,96,VALID,1.15508,
2010-09-10, 03:07:04,VALID,1011.05,VALID,0,VALID,103.367,VALID,0,VALID,22.3303,VALID,83,VALID,1.74023,
2010-09-10, 03:08:04,VALID,1011.03,VALID,0,VALID,103.337,VALID,0,VALID,22.3303,VALID,91,VALID,1.12266,
2010-09-10, 03:09:04,VALID,1011,VALID,0,VALID,103.329,VALID,0,VALID,22.3303,VALID,93,VALID,1.21875,
2010-09-10, 03:10:04,VALID,1011.01,VALID,0,VALID,103.329,VALID,0,VALID,22.3303,VALID,77,VALID,1.78125,
2010-09-10, 03:11:04,VALID,1010.99,VALID,0,VALID,103.321,VALID,0,VALID,22.3108,VALID,96,VALID,1.49258,
2010-09-10, 03:12:04,VALID,1010.98,VALID,0,VALID,103.329,VALID,0,VALID,22.3108,VALID,86,VALID,1.62852,
2010-09-10, 03:13:04,VALID,1010.95,VALID,0,VALID,103.283,VALID,0,VALID,22.3108,VALID,105,VALID,1.46172,
2010-09-10, 03:14:04,VALID,1010.94,VALID,0,VALID,103.26,VALID,0,VALID,22.3515,VALID,96,VALID,1.10977,
2010-09-10, 03:15:04,VALID,1010.96,VALID,0,VALID,103.26,VALID,0,VALID,22.3108,VALID,93,VALID,1.56758,
2010-09-10, 03:16:04,VALID,1010.92,VALID,0,VALID,103.215,VALID,0,VALID,22.3303,VALID,85,VALID,1.53789,
2010-09-10, 03:17:04,VALID,1010.91,VALID,0,VALID,103.253,VALID,0,VALID,22.3303,VALID,92,VALID,1.03789,
2010-09-10, 03:18:04,VALID,1010.93,VALID,0,VALID,103.207,VALID,0,VALID,22.3303,VALID,95,VALID,0.498437,
2010-09-10, 03:19:04,VALID,1010.91,VALID,0,VALID,103.23,VALID,0,VALID,22.332,VALID,125,VALID,0.871875,
2010-09-10, 03:20:04,VALID,1010.9,VALID,0,VALID,103.184,VALID,0,VALID,22.3108,VALID,98,VALID,1.37812,
2010-09-10, 03:21:04,VALID,1010.87,VALID,0,VALID,103.184,VALID,0,VALID,22.3108,VALID,107,VALID,1.48789,
2010-09-10, 03:22:04,VALID,1010.86,VALID,0,VALID,103.199,VALID,0,VALID,22.3108,VALID,80,VALID,1.35469,
2010-09-10, 03:23:04,VALID,1010.86,VALID,0,VALID,103.215,VALID,0,VALID,22.3108,VALID,95,VALID,1.80742,
2010-09-10, 03:24:04,VALID,1010.85,VALID,0,VALID,103.207,VALID,0,VALID,22.2914,VALID,91,VALID,1.05234,
2010-09-10, 03:25:04,VALID,1010.83,VALID,0,VALID,103.184,VALID,0,VALID,22.3125,VALID,84,VALID,1.76914,
2010-09-10, 03:26:04,VALID,1010.85,VALID,0,VALID,103.192,VALID,0,VALID,22.2914,VALID,83,VALID,1.66719,
2010-09-10, 03:27:04,VALID,1010.8,VALID,0,VALID,103.199,VALID,0,VALID,22.3125,VALID,91,VALID,0.537109,
2010-09-10, 03:28:04,VALID,1010.83,VALID,0,VALID,103.199,VALID,0,VALID,22.2914,VALID,100,VALID,1.41094,
2010-09-10, 03:29:04,VALID,1010.81,VALID,0,VALID,103.207,VALID,0,VALID,22.2914,VALID,97,VALID,1.45,
2010-09-10, 03:30:04,VALID,1010.8,VALID,0,VALID,103.237,VALID,0,VALID,22.2914,VALID,88,VALID,0.815625,
2010-09-10, 03:31:04,VALID,1010.81,VALID,0,VALID,103.222,VALID,0,VALID,22.2719,VALID,68,VALID,0.902344,
2010-09-10, 03:32:04,VALID,1010.81,VALID,0,VALID,103.268,VALID,0,VALID,22.293,VALID,92,VALID,1.13633,
2010-09-10, 03:33:04,VALID,1010.78,VALID,0,VALID,103.276,VALID,0,VALID,22.2719,VALID,74,VALID,0.730469,
2010-09-10, 03:34:04,VALID,1010.78,VALID,0,VALID,103.291,VALID,0,VALID,22.2736,VALID,74,VALID,0.690234,
2010-09-10, 03:35:04,VALID,1010.78,VALID,0,VALID,103.329,VALID,0,VALID,22.2524,VALID,78,VALID,0.810156,
2010-09-10, 03:36:04,VALID,1010.77,VALID,0,VALID,103.337,VALID,0,VALID,22.2524,VALID,75,VALID,0.780469,
2010-09-10, 03:37:04,VALID,1010.77,VALID,0,VALID,103.359,VALID,0,VALID,22.2524,VALID,81,VALID,0.741406,
2010-09-10, 03:38:04,VALID,1010.77,VALID,0,VALID,103.367,VALID,0,VALID,22.2524,VALID,75,VALID,1.16523,
2010-09-10, 03:39:04,VALID,1010.79,VALID,0,VALID,103.375,VALID,0,VALID,22.2329,VALID,73,VALID,0.718359,
2010-09-10, 03:40:04,VALID,1010.79,VALID,0,VALID,103.382,VALID,0.105969,VALID,22.2329,VALID,77,VALID,1.13555,
2010-09-10, 03:41:04,VALID,1010.78,VALID,0,VALID,103.39,VALID,0,VALID,22.2329,VALID,95,VALID,0.678906,
2010-09-10, 03:42:04,VALID,1010.81,VALID,0,VALID,103.382,VALID,0,VALID,22.2329,VALID,96,VALID,0.00195313,
2010-09-10, 03:43:04,VALID,1010.81,VALID,0,VALID,103.405,VALID,0,VALID,22.2329,VALID,47,VALID,0,
2010-09-10, 03:44:04,VALID,1010.8,VALID,0,VALID,103.42,VALID,0,VALID,22.2134,VALID,47,VALID,0.102734,
2010-09-10, 03:45:04,VALID,1010.82,VALID,0,VALID,103.428,VALID,0,VALID,22.194,VALID,21,VALID,0.686719,
2010-09-10, 03:46:04,VALID,1010.83,VALID,0,VALID,103.428,VALID,0,VALID,22.2134,VALID,19,VALID,0.219922,
2010-09-10, 03:47:04,VALID,1010.81,VALID,0,VALID,103.451,VALID,0,VALID,22.194,VALID,19,VALID,0,